Regional Weather Roundup
Issued by NWS

Home | Current Version | Previous Version | Text Only | Print | Product List | Glossary Off
Versions: 1 2 3 4 5 6 7 8 9 10 11 12 13 14 15 16 17 18 19 20 21 22 23 24 25 26 27 28 29 30 31 32 33 34 35 36 37 38 39 40 41 42 43 44 45 46 47 48 49 50

000
ASUS43 KMKX 031221
RWRWI

WISCONSIN REGIONAL WEATHER ROUNDUP
NATIONAL WEATHER SERVICE MILWAUKEE/SULLIVAN WI
700 AM CDT TUE MAY 03 2016

NOTE: "FAIR" INDICATES FEW OR NO CLOUDS BELOW 12,000 FEET WITH NO
SIGNIFICANT WEATHER AND/OR OBSTRUCTIONS TO VISIBILITY.

WIZ001-002-006>008-014>016-023>028-031300-
NORTHWEST WISCONSIN

CITY           SKY/WX    TMP DP  RH WIND       PRES   REMARKS
SUPERIOR ARPT  PTSUNNY   46  35  66 SW8       29.82F
6HR MIN TEMP:  32; 6HR MAX TEMP:  46;

ASHLAND        CLOUDY    51  33  50 SW9       29.81F
6HR MIN TEMP:  35; 6HR MAX TEMP:  51;

HAYWARD        MOSUNNY   42  34  73 SW5       29.87F
6HR MIN TEMP:  33; 6HR MAX TEMP:  42;

SIREN          CLOUDY    49  35  58 W8        29.89F
6HR MIN TEMP:  48; 6HR MAX TEMP:  50;

CUMBERLAND     CLOUDY    43  34  70 CALM      29.91S
RICE LAKE      CLOUDY    46  36  68 W3        29.93R
6HR MIN TEMP:  38; 6HR MAX TEMP:  46;

CHETEK         CLOUDY    44  36  74 CALM      29.92R
6HR MIN TEMP:  37; 6HR MAX TEMP:  44;

LADYSMITH      CLOUDY    39  35  87 CALM      29.91S
6HR MIN TEMP:  36; 6HR MAX TEMP:  41;

EAU CLAIRE     SUNNY     44  39  82 SW6       29.92S
6HR MIN TEMP:  41; 6HR MAX TEMP:  46;

MENOMONIE      SUNNY     40  38  91 CALM      29.92F
6HR MIN TEMP:  38; 6HR MAX TEMP:  44;

NEW RICHMOND   CLOUDY    43  38  80 CALM      29.93S
6HR MIN TEMP:  40; 6HR MAX TEMP:  46;

OSCEOLA        PTCLDY    42  42 100 CALM      29.95S
6HR MIN TEMP:  38; 6HR MAX TEMP:  43;

$$

WIZ003>005-009-010-017-018-031300-
NORTH CENTRAL WISCONSIN

CITY           SKY/WX    TMP DP  RH WIND       PRES   REMARKS
MANITOWISH WTR CLOUDY    43  36  76 SW5       29.84F
6HR MIN TEMP:  31; 6HR MAX TEMP:  43;

ARBOR VITAE    MOSUNNY   46  35  66 W3        29.85F
6HR MIN TEMP:  35; 6HR MAX TEMP:  46;

WOODRUFF       MOSUNNY   46  35  66 W3        29.85F
6HR MIN TEMP:  35; 6HR MAX TEMP:  46;

RHINELANDER    SUNNY     42  34  73 W5        29.87F
6HR MIN TEMP:  32; 6HR MAX TEMP:  42;

EAGLE RIVER    CLOUDY    42  35  77 W7        29.84F
LAND O LAKES   CLOUDY    46  34  62 W7        29.84F
6HR MIN TEMP:  30; 6HR MAX TEMP:  46;

PHILLIPS       MOSUNNY   37  36  95 CALM      29.87F
6HR MIN TEMP:  33; 6HR MAX TEMP:  38;

TOMAHAWK       SUNNY     35  32  87 CALM      29.89S
6HR MIN TEMP:  31; 6HR MAX TEMP:  35;

MEDFORD        SUNNY     44  35  70 W3        29.90S
6HR MIN TEMP:  42; 6HR MAX TEMP:  48;

MERRILL        SUNNY     34  33  94 CALM      29.90F
$$

WIZ029-030-035-036-043>047-031300-
CENTRAL WISCONSIN

CITY           SKY/WX    TMP DP  RH WIND       PRES   REMARKS
WAUSAU         SUNNY     49  36  61 NW6       29.88F
6HR MIN TEMP:  42; 6HR MAX TEMP:  49;

MOSINEE        SUNNY     45  36  70 W5        29.91F
MARSHFIELD     SUNNY     46  36  68 W7        29.91S
6HR MIN TEMP:  43; 6HR MAX TEMP:  49;

STEVENS POINT  SUNNY     36  34  92 CALM      29.92F
6HR MIN TEMP:  32; 6HR MAX TEMP:  39;

WAUPACA        SUNNY     51  39  65 W6        29.91F
6HR MIN TEMP:  40; 6HR MAX TEMP:  46;

WAUTOMA        SUNNY     38  36  92 MISG        N/A
6HR MIN TEMP:  34; 6HR MAX TEMP:  40;

WISC RAPIDS    SUNNY     39  36  89 SW3       29.94R
6HR MIN TEMP:  35; 6HR MAX TEMP:  41;

CAMP DOUGLAS   MOSUNNY   39  39 100 W3        29.94R
$$

WIZ011>013-019>022-031-037>040-048>050-031300-
NORTHEAST WISCONSIN

CITY           SKY/WX    TMP DP  RH WIND       PRES   REMARKS
ANTIGO         SUNNY     41  36  84 CALM      29.88F
6HR MIN TEMP:  35; 6HR MAX TEMP:  41;

SHAWANO        SUNNY     48  37  66 SW3       29.89S
6HR MIN TEMP:  42; 6HR MAX TEMP:  50;

OCONTO         SUNNY     46  38  73 W6        29.86F
6HR MIN TEMP:  36; 6HR MAX TEMP:  46;

STURGEON BAY   SUNNY     48  36  61 SW8       29.89S
6HR MIN TEMP:  43; 6HR MAX TEMP:  48;

GREEN BAY      SUNNY     46  38  73 SW7       29.89F
6HR MIN TEMP:  43; 6HR MAX TEMP:  47;

MANITOWOC      SUNNY     49  35  58 W10       29.91S
6HR MIN TEMP:  39; 6HR MAX TEMP:  49;

APPLETON       MOSUNNY   46  36  66 W9        29.89S
CLINTONVILLE   SUNNY     46  34  61 W6        29.89F
OSHKOSH        SUNNY     49  35  58 W8        29.91S
6HR MIN TEMP:  45; 6HR MAX TEMP:  49;

$$

WIZ032>034-041-042-053>061-031300-
SOUTHWEST WISCONSIN

CITY           SKY/WX    TMP DP  RH WIND       PRES   REMARKS
LA CROSSE      SUNNY     48  42  80 S7        29.96S
6HR MIN TEMP:  43; 6HR MAX TEMP:  51;

SPARTA         SUNNY     35  33  93 CALM      29.96S
6HR MIN TEMP:  31; 6HR MAX TEMP:  39;

VIROQUA        SUNNY     46  40  81 W6        29.97S
6HR MIN TEMP:  43; 6HR MAX TEMP:  51;

BOSCOBEL       SUNNY     42  40  92 SW5       29.99S
6HR MIN TEMP:  37; 6HR MAX TEMP:  45;

PRAIRIE DU CHI SUNNY     44  38  82 CALM      29.99S
6HR MIN TEMP:  41; 6HR MAX TEMP:  47;

PLATTEVILLE    SUNNY     42  40  93 W3        29.99S
6HR MIN TEMP:  41; 6HR MAX TEMP:  48;

$$

WIZ056-057-062-063-064-067-068-031300-
SOUTH CENTRAL WISCONSIN

CITY           SKY/WX    TMP DP  RH WIND       PRES   REMARKS
REEDSBURG      SUNNY     39  39  99 CALM      29.95S
6HR MIN TEMP:  36; 6HR MAX TEMP:  42;

BARABOO/DELLS  SUNNY     46  37  71 W3        29.95S
6HR MIN TEMP:  38; 6HR MAX TEMP:  46;

LONE ROCK      SUNNY     40  38  93 CALM      29.98S
6HR MIN TEMP:  36; 6HR MAX TEMP:  42;

MINERAL POINT  SUNNY     45  41  87 W5        29.97S
MADISON        SUNNY     41  37  86 CALM      29.95S
6HR MIN TEMP:  38; 6HR MAX TEMP:  48;

MIDDLETON      SUNNY     47  40  76 W5        29.97S
6HR MIN TEMP:  37; 6HR MAX TEMP:  47;

WATERTOWN      SUNNY     40  39  94 CALM      29.94S
6HR MIN TEMP:  33; 6HR MAX TEMP:  40;

MONROE         SUNNY     46  37  71 W10       29.97R
JANESVILLE     MOSUNNY   37  37 100 CALM      29.96S
$$

WIZ051-052-058>065-066-070>072-031300-
SOUTHEAST WISCONSIN

CITY           SKY/WX    TMP DP  RH WIND       PRES   REMARKS
MILWAUKEE      MOSUNNY   49  33  54 W8        29.95S
6HR MIN TEMP:  39; 6HR MAX TEMP:  49;

WAUKESHA       SUNNY     39  32  75 CALM      29.96S
MILWAUKEE/TIMM SUNNY     46  32  57 SW5       29.95F
RACINE         MOSUNNY   48  32  53 W8        29.97S
6HR MIN TEMP:  40; 6HR MAX TEMP:  48;

BURLINGTON     MOSUNNY   45  37  76 SW3       29.95F
6HR MIN TEMP:  33; 6HR MAX TEMP:  40;

KENOSHA        CLOUDY    45  37  73 W6        29.96S
6HR MIN TEMP:  37; 6HR MAX TEMP:  45;

FOND DU LAC    SUNNY     46  36  68 SW6       29.93S
6HR MIN TEMP:  40; 6HR MAX TEMP:  46;

SHEBOYGAN      SUNNY     46  37  71 SW5       29.92S
6HR MIN TEMP:  39; 6HR MAX TEMP:  46;

WEST BEND      SUNNY     46  36  66 CALM      29.94S
JUNEAU         SUNNY     40  35  82 S5        29.95S
6HR MIN TEMP:  38; 6HR MAX TEMP:  44;

$$

LSZ147-162-031300-
LAKE SUPERIOR

STATION/POSITION TIME  TEMP    WIND        PRES    WAVE
                       AIR SEA DIR/SP/G            HT/PER
                 (UTC) (F)     (DEG/KT/KT) (MB)    (FT/S)
W MID LAKE BUOY  1150   40 37  230/ 10/ 12 1007.6F   1
DEVILS ISLAND    1200   48     230/ 21/ 23 1008.0F
SAXON HARBOR     1140   55     220/ 12/ 19 1008.8F
$$

LMZ867-665-643>646-031300-
LAKE MICHIGAN

STATION/POSITION TIME  TEMP    WIND        PRES    WAVE
                       AIR SEA DIR/SP/G            HT/PER
                 (UTC) (F)     (DEG/KT/KT) (MB)    (FT/S)
CHAMBERS ISLAND  1100   47     200/  6/ 11 1011.2F
N MID LAKE BUOY  1150   42 38  200/ 12/ 14 1010.9F   1
NORC1F1C2F2C3F3C4F4C5F5C6F6C7F7C8M1C9M2Ca!


USA.gov is the U.S. government's official web portal to all federal, state and local government web resources and services.